Location: Kumla
(59.1265°N, 15.1401°E)
Time: 19:49:12
(UTC+01:00)

A-11 Canister half - Pass Details

Date: 09 December 2023
Orbit: 1526 x 1682 km, 47.3° (Epoch: 21 February)

Event Time Altitude Azimuth Distance (km) Brightness Sun altitude
Rises 19:44:12 0° 240° (WSW) 4,929 12.3 -33.8°
Reaches altitude 10° 19:47:35 10° 234° (SW) 3,943 11.5 -34.2°
Enters shadow 19:55:57 40° 180° (S) 2,297 9.7 -35.2°
